{"data":{"norad_id":68528,"intl_designator":"2026-068W","name":"STARLINK-37241","alt_names":[],"object_type":"PAYLOAD","status":"ACTIVE","operator":null,"country":"US","launch_date":"2026-03-30","launch_site_code":"AFETR","launch_vehicle":null,"mission":null,"orbit_class":"UNKNOWN","rcs_meters":null,"size_class":null,"mass_kg":null,"dimensions":null,"purposes":["comms"],"wikipedia_slug":null,"has_3d_model":false,"image_url":null,"decayed_at":null,"tle_current":{"epoch":"2026-05-25T02:51:39.666240Z","epoch_age_seconds":67863,"freshness":"FRESH","line1":"1 68528U 26068W   26145.11920910  .00021385  00000+0  73204-3 0  9999","line2":"2 68528  53.1576 134.4713 0001205  29.7595 330.3474 15.30201375  8645","mean_motion":15.30201375,"eccentricity":0.0001205,"inclination_deg":53.1576,"raan_deg":134.4713,"arg_perigee_deg":29.7595,"mean_anomaly_deg":330.3474,"bstar":0.00073204,"rev_number":864,"period_min":94.105261145776,"perigee_km":474.38513549059,"apogee_km":476.0367923499,"semimajor_km":6853.3479639202,"source":"CELESTRAK","updated_at":"2026-05-25T13:38:21.956917Z"}}}